QPF
0.03 0.02 0.02 0.03 0.03 0.03 0.01 0.01 0.02 0.02 0.03 0.04 0.06 0.06 0.05 0.05 0.06 0.05 0.04 0.04 0.04 0.04 0.05 0.06 0.09 0.10 0.12 0.12 0.11 0.09 0.10 0.10 0.08 0.07 0.06 0.05 0.04 0.06 0.08 0.09 0.12 0.10 0.07
0.02 0.03 0.02 0.01 0.01 0.02 0.01 0.01 0.02 0.02 0.03 0.03 0.05 0.05 0.03 0.04 0.04 0.04 0.05 0.05 0.04 0.05 0.04 0.05 0.06 0.07 0.09 0.08 0.07 0.08 0.09 0.09 0.08 0.08 0.08 0.08 0.09 0.08 0.09 0.10 0.09 0.08 0.08
0.03 0.02 0.02 0.02 0.01 0.02 0.01 0.01 0.02 0.02 0.02 0.04 0.04 0.04 0.04 0.03 0.04 0.05 0.06 0.05 0.05 0.05 0.05 0.04 0.05 0.05 0.05 0.06 0.06 0.08 0.09 0.08 0.09 0.09 0.10 0.10 0.11 0.10 0.10 0.09 0.07 0.06 0.07
0.06 0.04 0.02 0.02 0.02 0.02 0.01 0.02 0.04 0.03 0.03 0.05 0.04 0.04 0.05 0.05 0.05 0.06 0.05 0.05 0.04 0.04 0.04 0.04 0.05 0.05 0.05 0.05 0.05 0.06 0.08 0.09 0.09 0.09 0.10 0.12 0.13 0.12 0.11 0.10 0.08 0.06 0.05
0.06 0.05 0.03 0.02 0.02 0.02 0.01 0.03 0.05 0.04 0.04 0.06 0.07 0.05 0.05 0.05 0.06 0.05 0.06 0.06 0.04 0.04 0.04 0.05 0.05 0.06 0.06 0.06 0.05 0.07 0.08 0.08 0.09 0.10 0.10 0.11 0.14 0.15 0.15 0.13 0.10 0.07 0.05
0.08 0.06 0.04 0.03 0.03 0.02 0.02 0.03 0.05 0.05 0.04 0.03 0.04 0.05 0.05 0.05 0.05 0.05 0.06 0.06 0.05 0.05 0.04 0.03 0.04 0.05 0.06 0.07 0.08 0.08 0.08 0.07 0.07 0.08 0.10 0.10 0.10 0.12 0.13 0.13 0.11 0.07 0.06
0.07 0.06 0.05 0.05 0.04 0.03 0.03 0.04 0.04 0.03 0.02 0.02 0.03 0.04 0.05 0.06 0.05 0.04 0.05 0.05 0.04 0.03 0.02 0.02 0.02 0.03 0.05 0.07 0.09 0.10 0.08 0.06 0.05 0.05 0.06 0.06 0.06 0.07 0.08 0.10 0.10 0.08 0.07
0.06 0.06 0.05 0.04 0.03 0.03 0.03 0.03 0.02 0.03 0.03 0.03 0.03 0.04 0.04 0.05 0.04 0.03 0.03 0.03 0.03 0.01 0.01 0.01 0.03 0.05 0.06 0.06 0.07 0.06 0.05 0.04 0.04 0.03 0.04 0.04 0.03 0.04 0.06 0.08 0.09 0.09 0.08
0.03 0.04 0.04 0.04 0.04 0.04 0.04 0.04 0.03 0.03 0.04 0.03 0.02 0.02 0.02 0.02 0.03 0.03 0.02 0.02 0.02 0.01 0.01 0.02 0.04 0.04 0.04 0.03 0.04 0.04 0.03 0.04 0.04 0.04 0.03 0.02 0.03 0.03 0.05 0.07 0.09 0.09 0.08
0.03 0.04 0.04 0.05 0.04 0.04 0.04 0.04 0.03 0.02 0.02 0.02 0.01 0.02 0.03 0.02 0.03 0.03 0.02 0.01 0.01 0.01 0.01 0.01 0.02 0.02 0.02 0.02 0.02 0.03 0.03 0.03 0.04 0.04 0.03 0.02 0.03 0.03 0.04 0.04 0.06 0.08 0.09
0.04 0.04 0.04 0.04 0.05 0.04 0.04 0.04 0.03 0.02 0.02 0.02 0.02 0.04 0.04 0.03 0.04 0.04 0.03 0.02 0.01 0.01 0.01 0.01 0.01 0.02 0.02 0.01 0.02 0.02 0.02 0.03 0.04 0.04 0.03 0.02 0.03 0.03 0.04 0.04 0.04 0.05 0.07
0.05 0.05 0.05 0.05 0.06 0.06 0.05 0.05 0.04 0.03 0.02 0.03 0.04 0.06 0.04 0.03 0.03 0.04 0.03 0.02 0.01 0.01 0.01 0.01 0.01 0.01 0.01 0.01 0.01 0.01 0.02 0.03 0.04 0.04 0.05 0.04 0.03 0.03 0.04 0.04 0.04 0.04 0.05
0.07 0.07 0.06 0.06 0.06 0.05 0.04 0.04 0.04 0.03 0.03 0.03 0.03 0.04 0.04 0.04 0.04 0.04 0.03 0.02 0.02 0.01 0.01 0.01 0.01 0.01 0.01 0.01 0.01 0.01 0.02 0.03 0.04 0.04 0.05 0.06 0.05 0.05 0.05 0.04 0.04 0.05 0.06
0.08 0.10 0.08 0.08 0.08 0.07 0.05 0.04 0.03 0.03 0.03 0.03 0.03 0.03 0.03 0.03 0.03 0.04 0.03 0.01 0.01 0.01 0.02 0.01 0.02 0.01 0.01 0.01 0.01 0.02 0.02 0.03 0.04 0.05 0.06 0.05 0.04 0.04 0.05 0.04 0.05 0.07 0.07
0.08 0.11 0.08 0.06 0.06 0.06 0.06 0.04 0.03 0.03 0.03 0.03 0.03 0.03 0.02 0.02 0.02 0.03 0.02 0.01 0.01 0.01 0.01 0.02 0.01 0.01 0.00 0.01 0.01 0.02 0.02 0.04 0.04 0.04 0.06 0.05 0.03 0.03 0.03 0.03 0.03 0.05 0.08
0.05 0.05 0.04 0.04 0.05 0.06 0.06 0.05 0.04 0.04 0.03 0.03 0.03 0.03 0.02 0.02 0.02 0.02 0.02 0.02 0.02 0.02 0.02 0.02 0.02 0.01 0.00 0.01 0.01 0.02 0.04 0.06 0.07 0.07 0.07 0.07 0.05 0.04 0.02 0.02 0.02 0.03 0.06
0.05 0.05 0.04 0.04 0.05 0.08 0.08 0.08 0.07 0.06 0.05 0.04 0.04 0.04 0.03 0.02 0.02 0.01 0.02 0.02 0.02 0.02 0.03 0.03 0.03 0.02 0.00 0.01 0.01 0.02 0.05 0.07 0.08 0.08 0.08 0.07 0.06 0.05 0.04 0.03 0.03 0.04 0.05
0.06 0.07 0.07 0.07 0.07 0.07 0.08 0.06 0.06 0.06 0.05 0.05 0.04 0.05 0.04 0.03 0.03 0.02 0.02 0.03 0.03 0.03 0.03 0.03 0.03 0.03 0.01 0.01 0.01 0.02 0.04 0.04 0.04 0.04 0.05 0.07 0.06 0.04 0.05 0.05 0.04 0.04 0.05
0.06 0.08 0.09 0.09 0.09 0.08 0.07 0.06 0.06 0.06 0.05 0.04 0.03 0.03 0.03 0.03 0.03 0.03 0.03 0.03 0.03 0.03 0.03 0.03 0.03 0.03 0.02 0.02 0.02 0.02 0.04 0.04 0.04 0.03 0.03 0.04 0.04 0.04 0.06 0.08 0.07 0.04 0.04
0.05 0.06 0.06 0.06 0.08 0.09 0.08 0.05 0.05 0.04 0.03 0.03 0.03 0.02 0.02 0.03 0.03 0.03 0.03 0.02 0.02 0.02 0.02 0.02 0.03 0.02 0.02 0.02 0.03 0.03 0.02 0.03 0.03 0.03 0.03 0.03 0.03 0.03 0.05 0.08 0.07 0.05 0.04
0.03 0.03 0.03 0.04 0.05 0.07 0.08 0.07 0.06 0.05 0.04 0.03 0.04 0.04 0.03 0.02 0.02 0.02 0.02 0.02 0.02 0.02 0.02 0.03 0.03 0.02 0.01 0.02 0.02 0.02 0.02 0.02 0.02 0.02 0.03 0.03 0.03 0.03 0.04 0.05 0.04 0.03 0.04
0.03 0.03 0.03 0.04 0.05 0.05 0.07 0.09 0.08 0.06 0.04 0.05 0.05 0.04 0.03 0.01 0.01 0.02 0.02 0.02 0.02 0.03 0.03 0.03 0.02 0.02 0.01 0.01 0.01 0.02 0.02 0.01 0.02 0.02 0.02 0.01 0.02 0.02 0.03 0.03 0.02 0.02 0.02
0.05 0.05 0.04 0.04 0.05 0.04 0.05 0.06 0.04 0.02 0.02 0.03 0.04 0.04 0.02 0.02 0.02 0.02 0.02 0.02 0.02 0.01 0.02 0.02 0.02 0.02 0.02 0.01 0.01 0.01 0.02 0.02 0.02 0.02 0.02 0.01 0.01 0.02 0.03 0.02 0.01 0.02 0.02
0.04 0.04 0.05 0.06 0.05 0.04 0.03 0.03 0.02 0.01 0.01 0.02 0.03 0.02 0.02 0.02 0.01 0.01 0.01 0.01 0.01 0.01 0.01 0.02 0.02 0.02 0.02 0.02 0.02 0.02 0.02 0.02 0.02 0.03 0.03 0.02 0.02 0.02 0.02 0.02 0.02 0.02 0.02
0.04 0.04 0.04 0.05 0.04 0.02 0.02 0.02 0.01 0.02 0.02 0.03 0.03 0.02 0.02 0.02 0.01 0.00 0.00 0.00 0.01 0.01 0.01 0.01 0.01 0.02 0.02 0.02 0.02 0.02 0.02 0.02 0.02 0.02 0.02 0.03 0.03 0.02 0.02 0.03 0.03 0.03 0.02
0.03 0.03 0.04 0.05 0.04 0.03 0.03 0.02 0.02 0.03 0.03 0.03 0.03 0.02 0.01 0.01 0.00 0.00 0.00 0.00 0.00 0.00 0.00 0.01 0.01 0.01 0.02 0.02 0.01 0.02 0.02 0.01 0.01 0.01 0.01 0.01 0.01 0.01 0.01 0.01 0.02 0.02 0.01
MSLP
1018.06 1018.73 1019.24 1019.55 1019.66 1019.61 1019.45 1019.26 1019.11 1019.04 1019.07 1019.19 1019.35 1019.51 1019.62 1019.63 1019.53 1019.34 1019.09 1018.82 1018.58 1018.40 1018.27 1018.20 1018.14 1018.07 1017.94 1017.74 1017.48 1017.17 1016.85 1016.57 1016.36 1016.23 1016.20 1016.23 1016.31 1016.39 1016.45 1016.48 1016.49 1016.50 1016.53
1018.28 1019.04 1019.62 1019.97 1020.12 1020.07 1019.91 1019.72 1019.56 1019.48 1019.51 1019.62 1019.77 1019.89 1019.94 1019.88 1019.70 1019.43 1019.10 1018.77 1018.48 1018.27 1018.13 1018.06 1018.00 1017.93 1017.79 1017.58 1017.29 1016.96 1016.63 1016.35 1016.15 1016.05 1016.05 1016.13 1016.25 1016.38 1016.49 1016.56 1016.61 1016.65 1016.70
1018.63 1019.44 1020.07 1020.46 1020.62 1020.59 1020.43 1020.23 1020.06 1019.97 1019.99 1020.08 1020.19 1020.27 1020.27 1020.15 1019.90 1019.56 1019.17 1018.78 1018.46 1018.22 1018.07 1017.98 1017.92 1017.83 1017.68 1017.44 1017.13 1016.78 1016.43 1016.14 1015.93 1015.85 1015.87 1015.99 1016.16 1016.34 1016.51 1016.65 1016.76 1016.85 1016.96
1019.12 1019.95 1020.59 1021.00 1021.17 1021.15 1020.99 1020.79 1020.61 1020.51 1020.50 1020.56 1020.64 1020.68 1020.63 1020.46 1020.16 1019.77 1019.34 1018.92 1018.57 1018.31 1018.13 1018.03 1017.94 1017.83 1017.65 1017.38 1017.04 1016.65 1016.28 1015.96 1015.74 1015.65 1015.68 1015.81 1016.01 1016.24 1016.47 1016.69 1016.88 1017.05 1017.24
1019.71 1020.52 1021.16 1021.57 1021.76 1021.73 1021.58 1021.37 1021.18 1021.05 1021.02 1021.04 1021.09 1021.09 1021.01 1020.81 1020.49 1020.07 1019.62 1019.19 1018.81 1018.53 1018.33 1018.20 1018.08 1017.93 1017.70 1017.40 1017.02 1016.59 1016.18 1015.82 1015.57 1015.45 1015.46 1015.59 1015.80 1016.06 1016.35 1016.63 1016.90 1017.17 1017.45
1020.33 1021.10 1021.72 1022.13 1022.31 1022.30 1022.14 1021.92 1021.72 1021.57 1021.50 1021.49 1021.50 1021.48 1021.38 1021.16 1020.84 1020.43 1019.98 1019.54 1019.16 1018.85 1018.62 1018.45 1018.29 1018.09 1017.82 1017.47 1017.05 1016.58 1016.12 1015.72 1015.42 1015.25 1015.22 1015.32 1015.52 1015.79 1016.10 1016.44 1016.79 1017.15 1017.52
1020.89 1021.62 1022.21 1022.61 1022.80 1022.79 1022.63 1022.41 1022.18 1022.00 1021.90 1021.85 1021.83 1021.79 1021.68 1021.47 1021.16 1020.77 1020.34 1019.91 1019.52 1019.20 1018.94 1018.73 1018.52 1018.27 1017.95 1017.55 1017.08 1016.57 1016.07 1015.61 1015.26 1015.03 1014.94 1014.99 1015.15 1015.40 1015.73 1016.11 1016.52 1016.97 1017.44
1021.33 1022.01 1022.59 1022.98 1023.17 1023.16 1023.01 1022.78 1022.53 1022.32 1022.18 1022.10 1022.05 1021.99 1021.87 1021.68 1021.39 1021.04 1020.63 1020.23 1019.85 1019.51 1019.23 1018.97 1018.71 1018.41 1018.05 1017.61 1017.10 1016.55 1016.00 1015.50 1015.09 1014.80 1014.64 1014.62 1014.73 1014.95 1015.27 1015.67 1016.13 1016.66 1017.22
1021.61 1022.27 1022.83 1023.22 1023.41 1023.41 1023.26 1023.02 1022.75 1022.52 1022.34 1022.22 1022.14 1022.06 1021.95 1021.77 1021.52 1021.20 1020.83 1020.45 1020.08 1019.74 1019.43 1019.13 1018.83 1018.49 1018.09 1017.62 1017.08 1016.51 1015.93 1015.39 1014.93 1014.58 1014.35 1014.26 1014.31 1014.49 1014.79 1015.19 1015.70 1016.28 1016.93
1021.75 1022.40 1022.94 1023.33 1023.53 1023.54 1023.39 1023.15 1022.87 1022.61 1022.39 1022.24 1022.13 1022.03 1021.92 1021.76 1021.54 1021.25 1020.93 1020.57 1020.22 1019.87 1019.55 1019.22 1018.89 1018.52 1018.09 1017.60 1017.06 1016.47 1015.88 1015.32 1014.82 1014.42 1014.13 1013.98 1013.97 1014.10 1014.37 1014.78 1015.30 1015.93 1016.65
1021.79 1022.42 1022.95 1023.34 1023.54 1023.57 1023.43 1023.19 1022.91 1022.63 1022.39 1022.20 1022.07 1021.95 1021.84 1021.69 1021.50 1021.25 1020.95 1020.63 1020.29 1019.95 1019.62 1019.28 1018.92 1018.53 1018.10 1017.61 1017.07 1016.49 1015.90 1015.33 1014.82 1014.38 1014.06 1013.86 1013.80 1013.89 1014.13 1014.52 1015.05 1015.71 1016.46
1021.78 1022.38 1022.90 1023.29 1023.49 1023.53 1023.41 1023.19 1022.91 1022.62 1022.37 1022.17 1022.01 1021.89 1021.77 1021.63 1021.45 1021.23 1020.97 1020.67 1020.36 1020.03 1019.69 1019.35 1018.99 1018.60 1018.17 1017.69 1017.16 1016.61 1016.04 1015.48 1014.97 1014.53 1014.17 1013.94 1013.84 1013.89 1014.10 1014.47 1014.99 1015.65 1016.42
1021.76 1022.33 1022.83 1023.20 1023.41 1023.46 1023.37 1023.17 1022.91 1022.64 1022.38 1022.17 1022.01 1021.87 1021.75 1021.62 1021.46 1021.26 1021.03 1020.76 1020.46 1020.15 1019.83 1019.49 1019.13 1018.74 1018.32 1017.87 1017.37 1016.85 1016.31 1015.79 1015.29 1014.85 1014.50 1014.25 1014.12 1014.13 1014.31 1014.64 1015.13 1015.77 1016.53
1021.73 1022.27 1022.74 1023.09 1023.31 1023.37 1023.31 1023.15 1022.92 1022.68 1022.44 1022.23 1022.07 1021.93 1021.81 1021.68 1021.53 1021.36 1021.15 1020.91 1020.64 1020.34 1020.03 1019.70 1019.35 1018.98 1018.58 1018.15 1017.69 1017.21 1016.72 1016.23 1015.76 1015.35 1015.00 1014.74 1014.60 1014.58 1014.72 1015.01 1015.45 1016.04 1016.74
1021.72 1022.22 1022.65 1022.98 1023.19 1023.28 1023.25 1023.13 1022.95 1022.74 1022.53 1022.34 1022.18 1022.04 1021.92 1021.80 1021.67 1021.51 1021.32 1021.10 1020.85 1020.58 1020.29 1019.97 1019.64 1019.29 1018.91 1018.51 1018.08 1017.64 1017.19 1016.75 1016.33 1015.94 1015.62 1015.37 1015.22 1015.18 1015.27 1015.51 1015.89 1016.40 1017.02
1021.69 1022.15 1022.55 1022.86 1023.08 1023.18 1023.19 1023.11 1022.97 1022.80 1022.62 1022.45 1022.30 1022.17 1022.05 1021.94 1021.81 1021.67 1021.50 1021.30 1021.08 1020.83 1020.55 1020.26 1019.94 1019.61 1019.25 1018.87 1018.48 1018.09 1017.68 1017.29 1016.91 1016.57 1016.27 1016.04 1015.89 1015.84 1015.89 1016.07 1016.37 1016.79 1017.31
1021.64 1022.06 1022.44 1022.74 1022.95 1023.08 1023.12 1023.08 1022.98 1022.85 1022.70 1022.55 1022.40 1022.27 1022.15 1022.04 1021.92 1021.78 1021.63 1021.46 1021.26 1021.03 1020.78 1020.51 1020.21 1019.89 1019.56 1019.21 1018.85 1018.49 1018.13 1017.78 1017.46 1017.16 1016.90 1016.70 1016.56 1016.49 1016.52 1016.64 1016.87 1017.19 1017.60
1021.56 1021.97 1022.33 1022.62 1022.84 1022.98 1023.05 1023.04 1022.97 1022.87 1022.73 1022.59 1022.45 1022.31 1022.18 1022.06 1021.94 1021.81 1021.68 1021.53 1021.36 1021.16 1020.94 1020.69 1020.42 1020.12 1019.81 1019.49 1019.15 1018.82 1018.51 1018.21 1017.93 1017.68 1017.46 1017.29 1017.17 1017.11 1017.11 1017.19 1017.34 1017.57 1017.88
1021.47 1021.88 1022.24 1022.53 1022.75 1022.91 1022.99 1023.01 1022.96 1022.86 1022.74 1022.59 1022.43 1022.28 1022.13 1022.00 1021.87 1021.75 1021.63 1021.51 1021.37 1021.21 1021.03 1020.82 1020.57 1020.31 1020.02 1019.72 1019.41 1019.11 1018.83 1018.56 1018.33 1018.12 1017.95 1017.81 1017.71 1017.66 1017.65 1017.70 1017.80 1017.96 1018.18
1021.40 1021.82 1022.18 1022.48 1022.71 1022.87 1022.97 1022.99 1022.96 1022.86 1022.73 1022.56 1022.38 1022.20 1022.03 1021.88 1021.74 1021.63 1021.53 1021.43 1021.33 1021.22 1021.08 1020.92 1020.72 1020.49 1020.23 1019.96 1019.68 1019.40 1019.13 1018.90 1018.69 1018.52 1018.38 1018.27 1018.20 1018.16 1018.15 1018.18 1018.25 1018.35 1018.50
1021.37 1021.80 1022.17 1022.47 1022.71 1022.88 1022.99 1023.02 1022.98 1022.89 1022.73 1022.55 1022.34 1022.13 1021.93 1021.75 1021.60 1021.49 1021.40 1021.34 1021.29 1021.23 1021.15 1021.04 1020.90 1020.72 1020.50 1020.25 1019.99 1019.73 1019.48 1019.26 1019.06 1018.90 1018.78 1018.69 1018.64 1018.61 1018.61 1018.63 1018.68 1018.75 1018.85
1021.38 1021.81 1022.19 1022.50 1022.75 1022.93 1023.04 1023.08 1023.05 1022.94 1022.78 1022.57 1022.33 1022.09 1021.85 1021.65 1021.49 1021.38 1021.31 1021.28 1021.28 1021.28 1021.27 1021.24 1021.16 1021.03 1020.85 1020.64 1020.40 1020.14 1019.89 1019.66 1019.46 1019.29 1019.17 1019.08 1019.02 1019.00 1019.00 1019.02 1019.06 1019.11 1019.18
1021.41 1021.84 1022.21 1022.53 1022.78 1022.98 1023.10 1023.16 1023.13 1023.03 1022.86 1022.63 1022.37 1022.10 1021.84 1021.61 1021.44 1021.32 1021.28 1021.28 1021.33 1021.39 1021.45 1021.49 1021.48 1021.41 1021.29 1021.11 1020.88 1020.62 1020.36 1020.10 1019.87 1019.67 1019.52 1019.41 1019.34 1019.31 1019.31 1019.32 1019.36 1019.40 1019.45
1021.44 1021.85 1022.20 1022.51 1022.77 1022.98 1023.13 1023.20 1023.20 1023.11 1022.95 1022.72 1022.45 1022.15 1021.87 1021.62 1021.44 1021.32 1021.28 1021.32 1021.41 1021.53 1021.66 1021.76 1021.82 1021.82 1021.74 1021.59 1021.37 1021.11 1020.82 1020.53 1020.25 1020.00 1019.80 1019.65 1019.55 1019.50 1019.48 1019.49 1019.52 1019.56 1019.61
1021.41 1021.78 1022.11 1022.41 1022.67 1022.90 1023.07 1023.18 1023.21 1023.15 1023.01 1022.79 1022.52 1022.22 1021.92 1021.65 1021.45 1021.33 1021.29 1021.34 1021.46 1021.62 1021.81 1021.97 1022.09 1022.14 1022.10 1021.98 1021.78 1021.51 1021.19 1020.85 1020.53 1020.22 1019.97 1019.77 1019.62 1019.54 1019.50 1019.50 1019.53 1019.56 1019.60
1021.29 1021.61 1021.91 1022.19 1022.46 1022.70 1022.90 1023.05 1023.11 1023.10 1022.99 1022.79 1022.53 1022.24 1021.93 1021.65 1021.42 1021.28 1021.23 1021.28 1021.41 1021.60 1021.81 1022.02 1022.18 1022.28 1022.28 1022.18 1021.99 1021.71 1021.37 1021.00 1020.63 1020.28 1019.97 1019.72 1019.54 1019.42 1019.36 1019.35 1019.37 1019.41 1019.45
Thickness
5724 5721 5717 5714 5711 5708 5706 5703 5701 5699 5698 5696 5694 5691 5689 5688 5687 5684 5682 5681 5680 5679 5679 5680 5681 5682 5682 5682 5683 5682 5683 5684 5686 5685 5686 5690 5695 5695 5695 5695 5694 5694 5694
5717 5713 5710 5708 5705 5701 5699 5696 5694 5692 5691 5689 5687 5685 5683 5682 5680 5678 5675 5674 5673 5672 5672 5672 5673 5674 5674 5674 5674 5674 5674 5676 5679 5677 5675 5676 5680 5684 5687 5687 5687 5686 5687
5712 5708 5705 5703 5699 5695 5692 5689 5686 5685 5684 5683 5682 5680 5677 5674 5672 5670 5668 5667 5666 5665 5664 5664 5664 5665 5665 5665 5666 5666 5666 5666 5669 5671 5668 5665 5666 5669 5674 5676 5677 5677 5677
5710 5704 5701 5697 5693 5689 5686 5682 5679 5677 5676 5675 5674 5671 5667 5664 5662 5662 5661 5660 5658 5657 5656 5655 5655 5655 5656 5657 5657 5658 5657 5658 5659 5662 5663 5663 5662 5659 5659 5662 5665 5667 5667
5706 5701 5697 5692 5688 5684 5680 5676 5672 5669 5668 5667 5666 5663 5660 5657 5656 5655 5653 5652 5650 5648 5647 5646 5646 5646 5646 5647 5648 5648 5648 5649 5650 5651 5653 5654 5655 5655 5651 5650 5652 5655 5657
5700 5695 5691 5686 5681 5677 5674 5669 5665 5662 5661 5659 5657 5654 5651 5648 5646 5645 5643 5642 5640 5639 5637 5636 5636 5636 5636 5637 5638 5639 5640 5641 5642 5643 5644 5644 5645 5645 5645 5644 5644 5644 5646
5694 5688 5682 5677 5673 5669 5666 5662 5658 5655 5653 5651 5648 5646 5643 5640 5637 5635 5634 5632 5630 5628 5626 5626 5626 5626 5627 5628 5628 5630 5631 5632 5633 5634 5635 5637 5638 5639 5639 5638 5637 5636 5637
5689 5682 5676 5671 5666 5662 5659 5655 5650 5647 5645 5643 5640 5637 5635 5632 5630 5627 5625 5623 5621 5619 5618 5617 5617 5617 5618 5619 5619 5620 5622 5624 5625 5626 5627 5628 5630 5632 5632 5632 5630 5629 5629
5683 5677 5673 5667 5661 5656 5652 5648 5644 5640 5638 5635 5632 5629 5626 5624 5622 5619 5617 5615 5613 5612 5609 5609 5609 5609 5609 5609 5610 5611 5612 5614 5616 5617 5619 5620 5621 5623 5625 5626 5626 5624 5622
5676 5672 5667 5661 5656 5650 5645 5641 5637 5633 5630 5628 5625 5622 5619 5617 5614 5611 5608 5606 5605 5603 5602 5601 5601 5601 5600 5601 5601 5603 5604 5605 5607 5609 5610 5611 5613 5615 5617 5619 5620 5621 5619
5670 5665 5659 5654 5649 5644 5638 5634 5630 5627 5624 5621 5617 5614 5611 5610 5607 5604 5601 5599 5597 5596 5595 5594 5593 5593 5593 5593 5593 5594 5595 5597 5598 5600 5602 5603 5605 5606 5608 5610 5612 5614 5614
5665 5658 5652 5646 5641 5637 5633 5628 5625 5621 5617 5614 5611 5607 5604 5602 5599 5596 5594 5592 5590 5589 5588 5587 5586 5586 5586 5586 5586 5586 5587 5588 5590 5591 5593 5595 5597 5598 5600 5602 5604 5606 5607
5657 5651 5645 5639 5634 5630 5626 5621 5618 5615 5612 5608 5604 5600 5596 5593 5591 5589 5586 5585 5584 5583 5582 5581 5580 5579 5578 5578 5578 5579 5580 5581 5582 5583 5585 5587 5590 5592 5594 5595 5597 5599 5601
5650 5643 5637 5632 5628 5624 5619 5615 5612 5609 5606 5602 5597 5592 5589 5587 5585 5583 5581 5580 5578 5577 5576 5575 5574 5573 5572 5571 5571 5572 5573 5574 5575 5576 5578 5580 5583 5585 5587 5588 5590 5592 5594
5643 5637 5631 5626 5622 5617 5613 5610 5606 5602 5599 5595 5591 5586 5584 5582 5580 5577 5575 5574 5573 5572 5570 5569 5568 5567 5566 5563 5563 5565 5568 5568 5569 5571 5572 5574 5576 5578 5580 5581 5583 5585 5587
5637 5632 5626 5621 5616 5612 5607 5603 5600 5596 5593 5589 5585 5582 5579 5577 5575 5573 5570 5569 5567 5565 5564 5563 5562 5561 5559 5557 5558 5560 5562 5563 5564 5566 5568 5570 5571 5572 5574 5575 5577 5579 5581
5633 5627 5621 5615 5611 5607 5603 5598 5594 5591 5587 5584 5581 5578 5575 5573 5571 5570 5566 5564 5562 5560 5558 5557 5556 5555 5553 5553 5554 5556 5558 5559 5560 5562 5564 5567 5567 5567 5569 5571 5572 5574 5576
5629 5623 5616 5610 5605 5601 5598 5594 5590 5587 5583 5580 5577 5574 5572 5570 5567 5565 5562 5560 5558 5556 5555 5554 5553 5552 5550 5550 5551 5552 5555 5557 5558 5559 5561 5561 5561 5563 5565 5568 5569 5570 5571
5624 5618 5612 5606 5600 5596 5592 5589 5585 5582 5579 5576 5573 5571 5569 5566 5564 5561 5559 5557 5556 5554 5553 5552 5551 5550 5548 5548 5549 5550 5554 5555 5556 5557 5557 5558 5558 5558 5562 5565 5566 5567 5568
5619 5613 5607 5601 5596 5592 5589 5585 5581 5578 5576 5574 5571 5569 5566 5564 5561 5559 5558 5556 5555 5554 5553 5552 5550 5548 5547 5546 5548 5549 5552 5554 5555 5555 5555 5555 5556 5556 5558 5561 5563 5564 5565
5613 5608 5603 5597 5592 5589 5585 5581 5578 5576 5574 5572 5569 5567 5565 5563 5561 5559 5557 5556 5556 5554 5553 5551 5550 5549 5547 5547 5547 5548 5550 5552 5554 5555 5554 5553 5554 5555 5557 5559 5561 5562 5563
5608 5604 5598 5593 5589 5586 5582 5578 5576 5575 5573 5571 5568 5566 5564 5563 5562 5559 5558 5557 5556 5555 5554 5552 5551 5550 5549 5548 5548 5548 5549 5550 5551 5552 5553 5553 5554 5555 5557 5559 5561 5563 5564
5606 5601 5596 5591 5587 5584 5581 5577 5575 5574 5572 5569 5567 5565 5564 5563 5561 5560 5559 5558 5557 5557 5556 5555 5554 5553 5552 5550 5549 5549 5550 5551 5551 5552 5553 5554 5555 5557 5559 5561 5563 5565 5567
5604 5600 5595 5590 5586 5584 5581 5578 5576 5574 5571 5569 5567 5565 5564 5563 5562 5561 5561 5560 5559 5558 5558 5557 5556 5555 5554 5552 5550 5551 5552 5552 5552 5553 5555 5557 5559 5561 5562 5564 5566 5568 5570
5604 5600 5596 5591 5587 5584 5581 5579 5577 5575 5572 5570 5568 5567 5566 5565 5563 5562 5559 5559 5557 5556 5555 5555 5555 5554 5553 5550 5549 5550 5552 5553 5552 5554 5558 5562 5565 5566 5568 5570 5572 5573 5574
5605 5600 5597 5593 5589 5586 5583 5581 5579 5576 5573 5571 5570 5569 5568 5568 5567 5565 5563 5560 5559 5557 5557 5555 5555 5555 5554 5553 5553 5554 5554 5555 5556 5557 5562 5567 5571 5573 5574 5575 5576 5578 5578